Terminal Aerodrome Forecast
Issued by NWS

Home | Current Version | Previous Version | Text Only | Print | Product List | Glossary On
Versions: 1 2 3 4 5 6 7 8 9 10 11 12 13 14 15 16 17 18 19 20 21 22 23 24 25 26 27 28 29 30 31 32 33 34 35 36 37 38 39 40 41 42 43 44 45 46 47 48 49 50
000
FTAK31 PANC 241145 CCA
TAFASD
TAF COR
PASD 241145Z 2412/2512 30005KT P6SM -SHRA SCT025 OVC045
      TEMPO 2412/2416 SCT015 BKN025
     FM241600 32010G20KT 5SM -RA BR OVC025
     FM242100 33012G22KT P6SM VCSH SCT015 BKN035
     FM250000 34012G22KT P6SM -SHRA SCT025 BKN045
     FM250800 34007KT P6SM -SHRA OVC015
      AMD LTD TO CLD VIS AND WIND=

USA.gov is the U.S. government's official web portal to all federal, state and local government web resources and services.